Terminal Aerodrome Forecast
Issued by NWS Charleston, WV

Current Version | Previous Version | Graphics & Text | Print | Product List | Glossary On
Versions: 1 2 3 4 5 6 7 8 9 10 11 12 13 14 15 16 17 18 19 20 21 22 23 24 25
000
FTUS41 KRLX 070944 AAB
TAFPKB
TAF AMD
KPKB 070944Z 0710/0806 28008KT P6SM SCT015 OVC025
      TEMPO 0710/0713 SCT025
     FM071300 27005KT P6SM BKN025
      TEMPO 0713/0716 BKN015
     FM071600 26005KT P6SM BKN050
     FM071700 25005KT P6SM SCT120
     FM080000 00000KT P6SM SCT110
     FM080400 00000KT P6SM BKN100=

USA.gov is the U.S. government's official web portal to all federal, state and local government web resources and services.